Weather History for St. George, AK

Change the Weather History Date:

Thursday, October 18, 2012

  Actual Average Record
Temperature  
Mean Temperature 35 °F -  
Max Temperature 37 °F 39 °F 48 °F (2004)
Min Temperature 33 °F 32 °F 26 °F (2011)
Degree Days  
Heating Degree Days 30    
Moisture  
Dew Point 28 °F    
Average Humidity 78    
Maximum Humidity 93    
Minimum Humidity 67    
Precipitation  
Precipitation 0.04 in - - ()
Sea Level Pressure  
Sea Level Pressure 30.45 in    
Wind  
Wind Speed 9 mph (NNW)    
Max Wind Speed 16 mph    
Max Gust Speed 21 mph    
Visibility 9 miles    
Events Snow    
Averages and records for this station are not official NWS values.
T = Trace of Precipitation, MM = Missing Value Source: NWS Daily Summary

Daily Weather History Graph

Daily Weather History Graph

Search for Another Location

Airport:

Trip Planner

Search our weather history database for the weather conditions in past years. The results will help you decide how hot, cold, wet, or windy it might be!

Date:

Astronomy

Oct. 18, 2012 Rise Set
Actual Time 9:59 AM AKDT 8:07 PM AKDT
Civil Twilight 9:20 AM AKDT 8:45 PM AKDT
Nautical Twilight 8:36 AM AKDT 9:29 PM AKDT
Astronomical Twilight 7:52 AM AKDT 10:13 PM AKDT
Moon 2:39 PM AKDT (10/18) 10:11 PM AKDT (10/18)
Length of Visible Light 11h 25m
Length of Day
10h 08m
Waxing Crescent, 15% of the Moon is Illuminated
Oct 18
Waxing Crescent
Oct 21
First Quarter
Oct 29
Full
Nov 6
Last Quarter
Nov 13
New

Hourly Weather History & Observations

Time (AKDT) Temp. Windchill Dew Point Humidity Pressure Visibility Wind Dir Wind Speed Gust Speed Precip Events Conditions
12:53 AM 35.1 °F 26.4 °F 26.1 °F 70% 30.39 in 10.0 mi North 12.7 mph 17.3 mph N/A   Scattered Clouds
1:29 AM 33.8 °F 27.7 °F 26.6 °F 75% 30.43 in 10.0 mi North 6.9 mph - N/A   Mostly Cloudy
1:40 AM 35.6 °F 26.2 °F 26.6 °F 70% 30.43 in 10.0 mi North 15.0 mph 20.7 mph N/A   Scattered Clouds
1:48 AM 33.8 °F 28.6 °F 26.6 °F 75% 30.43 in 10.0 mi North 5.8 mph 20.7 mph N/A   Mostly Cloudy
1:53 AM 34.0 °F 27.2 °F 26.1 °F 73% 30.40 in 10.0 mi North 8.1 mph - N/A   Scattered Clouds
2:14 AM 33.8 °F 29.6 °F 24.8 °F 70% 30.44 in 10.0 mi Variable 4.6 mph - N/A   Mostly Cloudy
2:49 AM 33.8 °F 29.6 °F 26.6 °F 75% 30.45 in 10.0 mi Variable 4.6 mph - N/A   Overcast
2:53 AM 34.0 °F 27.2 °F 26.1 °F 73% 30.42 in 10.0 mi North 8.1 mph - N/A   Overcast
3:02 AM 33.8 °F 25.3 °F 26.6 °F 75% 30.45 in 10.0 mi NNW 11.5 mph 16.1 mph N/A   Overcast
3:16 AM 33.8 °F 25.8 °F 26.6 °F 75% 30.45 in 10.0 mi NNW 10.4 mph - N/A   Overcast
3:29 AM 35.6 °F 29.2 °F 26.6 °F 70% 30.46 in 10.0 mi North 8.1 mph - N/A   Overcast
3:53 AM 35.1 °F 27.9 °F 26.1 °F 70% 30.42 in 10.0 mi NNW 9.2 mph - N/A   Overcast
4:53 AM 34.0 °F 26.6 °F 26.1 °F 73% 30.42 in 10.0 mi NNW 9.2 mph - N/A   Overcast
5:53 AM 35.1 °F 28.6 °F 28.0 °F 76% 30.42 in 10.0 mi NNW 8.1 mph - N/A   Overcast
6:19 AM 35.6 °F 29.2 °F 28.4 °F 75% 30.46 in 10.0 mi NW 8.1 mph - N/A   Overcast
6:50 AM 35.6 °F 28.6 °F 28.4 °F 75% 30.45 in 10.0 mi NW 9.2 mph - N/A   Overcast
6:53 AM 35.1 °F 27.9 °F 28.9 °F 78% 30.42 in 10.0 mi NW 9.2 mph - N/A   Overcast
7:44 AM 35.6 °F 29.2 °F 30.2 °F 81% 30.45 in 10.0 mi NNW 8.1 mph - N/A   Overcast
7:53 AM 34.0 °F 28.0 °F 30.9 °F 89% 30.42 in 10.0 mi NNW 6.9 mph - N/A   Overcast
8:53 AM 34.0 °F 27.2 °F 30.9 °F 89% 30.43 in 6.0 mi NW 8.1 mph - 0.01 in Snow Light Snow
9:18 AM 33.8 °F 25.3 °F 32.0 °F 93% 30.46 in 10.0 mi North 11.5 mph - 0.00 in   Overcast
9:27 AM 33.8 °F 25.3 °F 32.0 °F 93% 30.47 in 7.0 mi NNW 11.5 mph - 0.00 in Snow Light Snow
9:53 AM 34.0 °F 23.8 °F 32.0 °F 92% 30.43 in 2.5 mi North 16.1 mph - 0.02 in Snow Light Snow
10:02 AM 33.8 °F 25.8 °F 32.0 °F 93% 30.46 in 4.0 mi North 10.4 mph - 0.00 in Snow Light Snow
10:20 AM 33.8 °F 26.4 °F 30.2 °F 87% 30.47 in 10.0 mi NNE 9.2 mph - 0.00 in   Overcast
10:53 AM 34.0 °F 24.6 °F 30.9 °F 89% 30.44 in 7.0 mi North 13.8 mph 18.4 mph 0.01 in Snow Light Snow
11:07 AM 33.8 °F 26.4 °F 30.2 °F 87% 30.47 in 3.0 mi North 9.2 mph 18.4 mph 0.00 in Snow Light Snow
11:46 AM 35.6 °F 29.9 °F 28.4 °F 75% 30.49 in 10.0 mi NNW 6.9 mph 19.6 mph 0.00 in   Mostly Cloudy
11:53 AM 36.0 °F 31.1 °F 28.9 °F 76% 30.45 in 10.0 mi North 5.8 mph 18.4 mph 0.00 in   Overcast
12:53 PM 36.0 °F 30.3 °F 30.0 °F 79% 30.46 in 10.0 mi NNW 6.9 mph - N/A   Overcast
1:39 PM 35.6 °F 27.5 °F 28.4 °F 75% 30.49 in 6.0 mi North 11.5 mph - 0.00 in Snow Light Snow
1:46 PM 35.6 °F 27.5 °F 30.2 °F 81% 30.49 in 9.0 mi North 11.5 mph - 0.00 in   Overcast
1:53 PM 35.1 °F 27.4 °F 28.9 °F 78% 30.46 in 10.0 mi NNW 10.4 mph - 0.00 in   Overcast
2:53 PM 37.0 °F 34.5 °F 30.0 °F 76% 30.45 in 10.0 mi Variable 3.5 mph - N/A   Overcast
3:53 PM 37.0 °F 28.5 °F 28.0 °F 70% 30.45 in 10.0 mi NNW 13.8 mph - N/A   Overcast
4:53 PM 37.0 °F 29.8 °F 27.0 °F 67% 30.45 in 10.0 mi NNW 10.4 mph - N/A   Overcast
5:53 PM 37.0 °F 29.3 °F 27.0 °F 67% 30.44 in 10.0 mi NNW 11.5 mph - N/A   Overcast
6:53 PM 37.0 °F 32.4 °F 28.9 °F 73% 30.44 in 10.0 mi NNW 5.8 mph - N/A   Overcast
7:53 PM 36.0 °F 28.5 °F 28.0 °F 73% 30.45 in 10.0 mi NNW 10.4 mph - N/A   Overcast
8:53 PM 36.0 °F 29.6 °F 28.0 °F 73% 30.45 in 10.0 mi NNW 8.1 mph - N/A   Overcast
9:53 PM 36.0 °F 30.3 °F 28.9 °F 76% 30.46 in 10.0 mi North 6.9 mph - N/A   Overcast
10:53 PM 36.0 °F 32.1 °F 28.9 °F 76% 30.47 in 10.0 mi NNW 4.6 mph - N/A   Overcast
11:53 PM 35.1 °F - 28.9 °F 78% 30.47 in 10.0 mi Calm Calm - N/A   Overcast